| time (UTC) | temp F | wind direction | speed MPH | gust MPH | rain 1hr in | rain 24hr in | rain mn in | humidity % | barometer mb |
| 20260505001508 | 78 | 226 | 3.0 | 13.0 | 0.00 | 0.00 | 0.00 | 60 | 1003.7 |
| 20260505000442 | 79 | 87 | 3.0 | 16.0 | 0.00 | 0.00 | 0.00 | 60 | 1004.0 |
| 20260504235408 | 79 | 129 | 3.0 | 16.0 | 0.00 | 0.00 | 0.00 | 60 | 1003.8 |
| 20260504234359 | 79 | 155 | 3.0 | 12.0 | 0.00 | 0.00 | 0.00 | 59 | 1003.8 |
| 20260504232244 | 80 | 205 | 3.0 | 11.0 | 0.00 | 0.00 | 0.00 | 59 | 1004.1 |
| 20260504231230 | 80 | 150 | 4.0 | 15.0 | 0.00 | 0.00 | 0.00 | 58 | 1004.0 |
| 20260504230233 | 81 | 192 | 3.0 | 15.0 | 0.00 | 0.00 | 0.00 | 57 | 1004.1 |
| 20260504222942 | 82 | 153 | 4.0 | 15.0 | 0.00 | 0.00 | 0.00 | 56 | 1004.3 |
| 20260504221920 | 82 | 240 | 4.0 | 15.0 | 0.00 | 0.00 | 0.00 | 57 | 1004.5 |
| 20260504220941 | 82 | 153 | 3.0 | 15.0 | 0.00 | 0.00 | 0.00 | 58 | 1004.5 |
| 20260504215913 | 82 | 155 | 3.0 | 15.0 | 0.00 | 0.00 | 0.00 | 59 | 1004.5 |
| 20260504214913 | 81 | 61 | 4.0 | 12.0 | 0.00 | 0.00 | 0.00 | 56 | 1004.7 |
| 20260504213839 | 82 | 198 | 4.0 | 12.0 | 0.00 | 0.00 | 0.00 | 56 | 1004.9 |
| 20260504212901 | 81 | 121 | 3.0 | 9.0 | 0.00 | 0.00 | 0.00 | 58 | 1005.2 |
| 20260504211826 | 82 | 232 | 3.0 | 11.0 | 0.00 | 0.00 | 0.00 | 55 | 1005.3 |
| 20260504210827 | 81 | 294 | 4.0 | 11.0 | 0.00 | 0.00 | 0.00 | 56 | 1005.5 |
| 20260504204701 | 81 | 122 | 3.0 | 12.0 | 0.00 | 0.00 | 0.00 | 54 | 1006.1 |
| 20260504203628 | 81 | 184 | 3.0 | 10.0 | 0.00 | 0.00 | 0.00 | 56 | 1006.2 |
| 20260504202601 | 81 | 244 | 4.0 | 12.0 | 0.00 | 0.00 | 0.00 | 58 | 1006.3 |
| 20260504201543 | 80 | 142 | 4.0 | 14.0 | 0.00 | 0.00 | 0.00 | 56 | 1006.5 |
| 20260504200526 | 80 | 169 | 4.0 | 16.0 | 0.00 | 0.00 | 0.00 | 56 | 1006.8 |
| 20260504195506 | 80 | 234 | 4.0 | 16.0 | 0.00 | 0.00 | 0.00 | 55 | 1007.1 |
| 20260504193340 | 80 | 119 | 3.0 | 20.0 | 0.00 | 0.00 | 0.00 | 59 | 1007.2 |
| 20260504192325 | 80 | 130 | 4.0 | 20.0 | 0.00 | 0.00 | 0.00 | 55 | 1007.5 |
| 20260504191300 | 79 | 247 | 4.0 | 11.0 | 0.00 | 0.00 | 0.00 | 57 | 1007.6 |
| 20260504185030 | 78 | 188 | 3.0 | 15.0 | 0.00 | 0.00 | 0.00 | 59 | 1008.1 |
| 20260504183956 | 78 | 142 | 4.0 | 10.0 | 0.00 | 0.00 | 0.00 | 57 | 1008.2 |
| 20260504182950 | 78 | 143 | 4.0 | 11.0 | 0.00 | 0.00 | 0.00 | 59 | 1008.4 |
| 20260504182006 | 78 | 180 | 4.0 | 14.0 | 0.00 | 0.00 | 0.00 | 57 | 1008.5 |
| 20260504181026 | 77 | 169 | 3.0 | 14.0 | 0.00 | 0.00 | 0.00 | 58 | 1008.7 |
| 20260504180035 | 77 | 94 | 4.0 | 12.0 | 0.00 | 0.00 | 0.00 | 56 | 1008.9 |
| 20260504175021 | 77 | 163 | 4.0 | 12.0 | 0.00 | 0.00 | 0.00 | 56 | 1008.8 |
| 20260504173949 | 77 | 189 | 4.0 | 12.0 | 0.00 | 0.00 | 0.00 | 57 | 1009.1 |
| 20260504171907 | 76 | 208 | 4.0 | 14.0 | 0.00 | 0.00 | 0.00 | 59 | 1009.4 |
| 20260504170840 | 76 | 181 | 3.0 | 14.0 | 0.00 | 0.00 | 0.00 | 57 | 1009.6 |
| 20260504141333 | 68 | 194 | 4.0 | 15.0 | 0.00 | 0.00 | 0.00 | 67 | 1011.0 |
| 20260504140310 | 68 | 255 | 4.0 | 14.0 | 0.00 | 0.00 | 0.00 | 68 | 1011.2 |
| 20260504130324 | 64 | 0 | 1.0 | 7.0 | 0.00 | 0.00 | 0.00 | 71 | 1011.5 |
| 20260504081747 | 65 | 345 | 1.0 | 6.0 | 0.00 | 0.01 | 0.00 | 59 | 1011.9 |
| 20260504080737 | 65 | 198 | 1.0 | 5.0 | 0.00 | 0.01 | 0.00 | 59 | 1012.0 |
| 20260504050327 | 67 | 178 | 0.0 | 3.0 | 0.00 | 0.01 | 0.00 | 54 | 1014.1 |
| 20260504045330 | 67 | 176 | 0.0 | 4.0 | 0.00 | 0.01 | 0.01 | 54 | 1014.2 |
| 20260504043201 | 66 | 159 | 0.0 | 1.0 | 0.00 | 0.01 | 0.01 | 54 | 1014.3 |
| 20260504042221 | 67 | 164 | 0.0 | 3.0 | 0.00 | 0.01 | 0.01 | 53 | 1014.3 |
| 20260504040045 | 67 | 164 | 0.0 | 1.0 | 0.00 | 0.01 | 0.01 | 51 | 1014.4 |
| 20260504035100 | 68 | 164 | 0.0 | 0.0 | 0.00 | 0.01 | 0.01 | 50 | 1014.4 |
| 20260504031732 | 69 | 164 | 0.0 | 0.0 | 0.00 | 0.01 | 0.01 | 46 | 1014.2 |
| 20260504030715 | 70 | 164 | 0.0 | 1.0 | 0.00 | 0.01 | 0.01 | 45 | 1014.2 |
| 20260504025649 | 71 | 164 | 0.0 | 1.0 | 0.00 | 0.01 | 0.01 | 44 | 1014.1 |
| 20260504024615 | 71 | 185 | 0.0 | 3.0 | 0.00 | 0.01 | 0.01 | 44 | 1014.0 |
| 20260504023636 | 72 | 173 | 0.0 | 5.0 | 0.00 | 0.01 | 0.01 | 42 | 1014.1 |
| 20260504021426 | 72 | 153 | 1.0 | 4.0 | 0.00 | 0.01 | 0.01 | 42 | 1013.9 |
| 20260504020402 | 72 | 132 | 0.0 | 4.0 | 0.00 | 0.01 | 0.01 | 41 | 1013.9 |
| 20260504015403 | 73 | 144 | 0.0 | 4.0 | 0.00 | 0.01 | 0.01 | 41 | 1013.9 |
| 20260504014327 | 73 | 148 | 0.0 | 2.0 | 0.00 | 0.01 | 0.01 | 39 | 1013.8 |
| 20260504013324 | 74 | 148 | 1.0 | 7.0 | 0.00 | 0.01 | 0.01 | 39 | 1013.7 |
| 20260504012343 | 74 | 161 | 1.0 | 7.0 | 0.00 | 0.01 | 0.01 | 38 | 1013.6 |
| 20260504011330 | 75 | 102 | 1.0 | 6.0 | 0.00 | 0.01 | 0.01 | 38 | 1013.6 |
| 20260504010336 | 75 | 200 | 1.0 | 6.0 | 0.00 | 0.01 | 0.01 | 38 | 1013.5 |
| 20260504005320 | 75 | 146 | 1.0 | 5.0 | 0.00 | 0.01 | 0.01 | 37 | 1013.4 |
| 20260504004322 | 76 | 151 | 0.0 | 6.0 | 0.00 | 0.01 | 0.01 | 37 | 1013.4 |
| 20260504003251 | 77 | 186 | 1.0 | 7.0 | 0.00 | 0.01 | 0.01 | 36 | 1013.5 |